Location: Cave
(41.8160°N, 12.9350°E)
Time: 05:14:26
(UTC+02:00)

ISS - Pass Details

Date: 09 July 2019
Orbit: 411 x 421 km, 51.6° (Epoch: 19 October)

Event Time Altitude Azimuth Distance (km) Brightness Sun altitude
Exits shadow 02:30:10 41° 350° (N) 619 -2.6 -23.4°
Drops below altitude 10° 02:33:03 10° 45° (NE) 1,497 -0.1 -23.2°
Sets 02:35:13 0° 52° (NE) 2,360 1.0 -23.0°
